User: anonymous   Login
Location: eljas
(40.1958°N, 6.8661°W)
Time: 14:16:16
(UTC+02:00)
Language:

Okean O Rocket - Orbit

View from above orbital plane
View from above orbital plane
View from above satellite
View from above satellite

Ground track
Ground track

The orbit data is extracted from the following two-line orbital elements,

1 25861U 99039B   16268.98832308  .00000095  00000-0  20347-4 0  9990
2 25861  98.0660 233.1360 0014895 211.6596 190.5658 14.78349567926597
Epoch (UTC): 24 September 2016 23:43:11
Eccentricity: 0.0014895
inclination: 98.0660°
perigee height: 624 km
apogee height: 645 km
right ascension of ascending node: 233.1360°
argument of perigee: 211.6596°
revolutions per day: 14.78349567
mean anomaly at epoch: 190.5658°
orbit number at epoch: 92659

The dashed part of the orbit path shows where the satellite is in the earth's shadow,  

DLR